Regional Weather Roundup
Issued by NWS Raleigh/Durham, NC

Home | Current Version | Previous Version | Text Only | Print | Product List | Glossary On
Versions: 1 2 3 4 5 6 7 8 9 10 11 12 13 14 15 16 17 18 19 20 21 22 23 24 25 26 27 28 29 30 31 32 33 34 35 36 37 38 39 40 41 42 43 44 45 46 47 48 49 50
000
ASUS42 KRAH 281810
RWRRAH
NORTH CAROLINA WEATHER ROUNDUP
NATIONAL WEATHER SERVICE RALEIGH NC
200 PM EDT THU MAY 28 2015

NOTE: "FAIR" INDICATES FEW OR NO CLOUDS BELOW 12,000 FEET WITH NO
SIGNIFICANT WEATHER AND/OR OBSTRUCTIONS TO VISIBILITY.

NCZ001-053-055-056-065-067-281900-
WESTERN NORTH CAROLINA

CITY           SKY/WX    TMP DP  RH WIND       PRES   REMARKS
ASHEVILLE      LGT RAIN  77  62  59 W5        30.26F
JEFFERSON      PTSUNNY   76  56  50 E7        30.31F
MORGANTON      MOSUNNY   86  62  44 E5        30.26F
HICKORY        MOSUNNY   86  62  44 MISG      30.21F
RUTHERFORDTON  CLOUDY    85  65  50 S10G16    30.22F
MOUNT AIRY     PTSUNNY   86  63  46 E5        30.23F
BOONE          PTSUNNY   74  60  62 E5        30.32S
$$

NCZ021-022-025-041-071-084-088-281900-
CENTRAL NORTH CAROLINA

CITY           SKY/WX    TMP DP  RH WIND       PRES   REMARKS
CHARLOTTE      PTSUNNY   87  63  44 S13       30.21F
GREENSBORO     PTSUNNY   82  64  54 S8G16     30.21F
WINSTON-SALEM  MOSUNNY   84  64  50 VRB6      30.22F
RALEIGH-DURHAM PTSUNNY   82  68  62 SE6       30.21F
FORT BRAGG     MOSUNNY   83  67  57 VRB3      30.21F
FAYETTEVILLE   CLOUDY    81  68  64 VRB6      30.21F
BURLINGTON     MOSUNNY   84  68  58 VRB5      30.22S
LAURINBURG     MOSUNNY   85  66  53 E6        30.22F
$$

NCZ011-015-027-028-043-044-047-080-103-281900-
NORTHEASTERN NORTH CAROLINA

CITY           SKY/WX    TMP DP  RH WIND       PRES   REMARKS
ROCKY MT-WILSO MOSUNNY   84  69  60 VRB6      30.22F
GREENVILLE     MOSUNNY   82  68  61 W5        30.23S
WASHINGTON     MOSUNNY   83  67  58 S3        30.22S
ELIZABETH CITY CLOUDY    80  68  66 SE5       30.22F
MANTEO         SUNNY     77  64  63 S14       30.24S
CAPE HATTERAS  SUNNY     80  59  48 S7        30.25F
$$

NCZ078-087-090-091-093-098-101-281900-
SOUTHEASTERN NORTH CAROLINA

CITY           SKY/WX    TMP DP  RH WIND       PRES   REMARKS
LUMBERTON      MOSUNNY   86  67  52 VRB6      30.21F
GOLDSBORO      PTSUNNY   83  68  60 S1        30.19F
KINSTON        MOSUNNY   84  66  54 CALM      30.22F
KENANSVILLE    CLOUDY    81  64  56 SE3       30.23F
NEW BERN       SUNNY     85  65  51 SE8       30.23F
CHERRY POINT   PTSUNNY   82  64  54 S6        30.24F
BEAUFORT       CLOUDY    78  63  59 S8        30.24F
JACKSONVILLE   MOSUNNY   81  62  52 SE9       30.23S
WILMINGTON     SUNNY     81  63  54 SE10      30.23F
$$



USA.gov is the U.S. government's official web portal to all federal, state and local government web resources and services.